| time (UTC) | temp C | wind direction | speed KPH | gust KPH | rain 1hr cm | rain 24hr cm | rain mn cm | humidity % | barometer mb |
| 20260905144629 | 25 | 270 | 0.0 | 0.0 | 0.00 | 0.00 | 0.00 | 44 | 1002.0 |
| 20260905141631 | 25 | 270 | 0.0 | 0.0 | 0.00 | 0.00 | 0.00 | 45 | 1001.0 |
| 20260905140055 | 25 | 270 | 0.0 | 0.0 | 0.00 | 0.10 | 0.00 | 45 | 1001.0 |
| 20260905134631 | 25 | 270 | 0.0 | 0.0 | 0.00 | 0.10 | 0.00 | 45 | 1002.0 |
| 20260905131630 | 26 | 270 | 0.0 | 3.2 | 0.00 | 0.10 | 0.00 | 44 | 1002.0 |
| 20260905131553 | 26 | 270 | 0.0 | 0.0 | 0.00 | 0.10 | 0.00 | 44 | 1002.0 |
| 20260905124630 | 26 | 315 | 0.0 | 0.0 | 0.00 | 0.10 | 0.00 | 42 | 1002.0 |
| 20260905121630 | 26 | 315 | 0.0 | 0.0 | 0.00 | 0.10 | 0.00 | 40 | 1002.0 |
| 20260905121555 | 26 | 315 | 0.0 | 0.0 | 0.00 | 0.10 | 0.00 | 40 | 1002.0 |
| 20260905120055 | 26 | 315 | 0.0 | 0.0 | 0.00 | 0.10 | 0.00 | 39 | 1002.0 |
| 20260905114630 | 26 | 315 | 0.0 | 0.0 | 0.00 | 0.10 | 0.00 | 39 | 1002.0 |
| 20260905111629 | 26 | 270 | 0.0 | 0.0 | 0.00 | 0.10 | 0.00 | 42 | 1002.0 |
| 20260905104629 | 26 | 270 | 0.0 | 0.0 | 0.00 | 0.10 | 0.00 | 43 | 1002.0 |
| 20260905103054 | 27 | 270 | 0.0 | 0.0 | 0.00 | 0.10 | 0.00 | 42 | 1001.0 |
| 20260905101631 | 27 | 270 | 0.0 | 0.0 | 0.00 | 0.10 | 0.00 | 41 | 1001.0 |
| 20260905100053 | 27 | 270 | 0.0 | 0.0 | 0.00 | 0.10 | 0.00 | 40 | 1001.0 |
| 20260905094629 | 27 | 270 | 0.0 | 0.0 | 0.00 | 0.10 | 0.00 | 39 | 1001.0 |
| 20260905094554 | 27 | 270 | 0.0 | 0.0 | 0.00 | 0.10 | 0.00 | 39 | 1001.0 |
| 20260905093053 | 27 | 270 | 0.0 | 0.0 | 0.00 | 0.10 | 0.00 | 39 | 1001.0 |
| 20260905091634 | 28 | 270 | 0.0 | 0.0 | 0.00 | 0.10 | 0.00 | 38 | 1001.0 |
| 20260905091557 | 28 | 270 | 0.0 | 0.0 | 0.00 | 0.10 | 0.00 | 38 | 1001.0 |
| 20260905090057 | 28 | 270 | 0.0 | 0.0 | 0.00 | 0.10 | 0.00 | 36 | 1000.0 |
| 20260905084634 | 28 | 270 | 0.0 | 0.0 | 0.00 | 0.20 | 0.00 | 33 | 1001.0 |
| 20260905084557 | 28 | 270 | 0.0 | 0.0 | 0.00 | 0.20 | 0.00 | 33 | 1001.0 |
| 20260905083057 | 28 | 270 | 0.0 | 0.0 | 0.00 | 0.20 | 0.00 | 35 | 1000.0 |
| 20260905081633 | 29 | 270 | 0.0 | 0.0 | 0.00 | 0.20 | 0.00 | 35 | 1000.0 |
| 20260905081556 | 29 | 270 | 0.0 | 0.0 | 0.00 | 0.20 | 0.00 | 35 | 1000.0 |
| 20260905080058 | 29 | 270 | 0.0 | 0.0 | 0.00 | 0.20 | 0.00 | 35 | 1000.0 |
| 20260905074633 | 30 | 270 | 0.0 | 0.0 | 0.00 | 0.20 | 0.00 | 34 | 1000.0 |
| 20260905074557 | 30 | 270 | 0.0 | 0.0 | 0.00 | 0.20 | 0.00 | 33 | 1000.0 |
| 20260905073058 | 30 | 270 | 0.0 | 0.0 | 0.00 | 0.20 | 0.00 | 33 | 1000.0 |
| 20260905071633 | 30 | 270 | 0.0 | 0.0 | 0.00 | 0.30 | 0.00 | 33 | 1000.0 |
| 20260905071557 | 30 | 270 | 0.0 | 0.0 | 0.00 | 0.30 | 0.00 | 32 | 1000.0 |
| 20260905070057 | 31 | 270 | 0.0 | 0.0 | 0.00 | 0.30 | 0.00 | 29 | 1000.0 |
| 20260905064632 | 31 | 270 | 0.0 | 0.0 | 0.00 | 0.30 | 0.00 | 28 | 1000.0 |
| 20260905064558 | 31 | 270 | 0.0 | 0.0 | 0.00 | 0.30 | 0.00 | 28 | 1000.0 |
| 20260905061634 | 31 | 270 | 0.0 | 0.0 | 0.00 | 0.30 | 0.00 | 28 | 1000.0 |
| 20260905061557 | 32 | 270 | 0.0 | 0.0 | 0.00 | 0.30 | 0.00 | 27 | 1000.0 |
| 20260905060057 | 32 | 270 | 0.0 | 0.0 | 0.00 | 0.30 | 0.00 | 25 | 1000.0 |
| 20260905054634 | 32 | 270 | 0.0 | 0.0 | 0.00 | 0.30 | 0.00 | 23 | 1000.0 |
| 20260905054556 | 32 | 270 | 0.0 | 0.0 | 0.00 | 0.30 | 0.00 | 23 | 1000.0 |
| 20260905053056 | 32 | 270 | 0.0 | 0.0 | 0.00 | 0.30 | 0.00 | 25 | 1000.0 |
| 20260905051633 | 32 | 270 | 0.0 | 0.0 | 0.00 | 0.30 | 0.00 | 22 | 1000.0 |
| 20260905044633 | 33 | 270 | 0.0 | 0.0 | 0.00 | 0.30 | 0.00 | 19 | 1000.0 |
| 20260905041633 | 33 | 270 | 0.0 | 0.0 | 0.00 | 0.30 | 0.00 | 19 | 1000.0 |
| 20260905041556 | 33 | 270 | 0.0 | 0.0 | 0.00 | 0.30 | 0.00 | 19 | 1000.0 |
| 20260905040057 | 33 | 270 | 0.0 | 0.0 | 0.00 | 0.30 | 0.00 | 19 | 1001.0 |
| 20260905034632 | 33 | 270 | 0.0 | 0.0 | 0.00 | 0.30 | 0.00 | 21 | 1001.0 |
| 20260905034557 | 33 | 270 | 0.0 | 0.0 | 0.00 | 0.30 | 0.00 | 21 | 1001.0 |
| 20260905031632 | 34 | 270 | 0.0 | 0.0 | 0.00 | 0.30 | 0.00 | 20 | 1001.0 |
| 20260905031557 | 34 | 270 | 0.0 | 0.0 | 0.00 | 0.30 | 0.00 | 20 | 1001.0 |
| 20260905024632 | 33 | 270 | 0.0 | 3.2 | 0.00 | 0.30 | 0.00 | 24 | 1001.0 |
| 20260905023056 | 32 | 270 | 0.0 | 0.0 | 0.00 | 0.30 | 0.00 | 26 | 1001.0 |
| 20260905021632 | 31 | 270 | 0.0 | 0.0 | 0.00 | 0.30 | 0.00 | 28 | 1002.0 |
| 20260905021557 | 31 | 270 | 0.0 | 0.0 | 0.00 | 0.30 | 0.00 | 28 | 1002.0 |
| 20260905014632 | 28 | 270 | 0.0 | 0.0 | 0.00 | 0.41 | 0.00 | 35 | 1002.0 |
| 20260905003759 | 26 | 270 | 0.0 | 0.0 | 0.00 | 0.41 | 0.00 | 40 | 1002.0 |
| 20260905000758 | 26 | 270 | 0.0 | 0.0 | 0.00 | 0.41 | 0.00 | 45 | 1002.0 |
| 20260904233759 | 25 | 270 | 0.0 | 0.0 | 0.00 | 0.41 | 0.00 | 47 | 1002.0 |
| 20260904233548 | 25 | 270 | 0.0 | 0.0 | 0.00 | 0.41 | 0.00 | 47 | 1002.0 |
| 20260904230758 | 24 | 270 | 0.0 | 0.0 | 0.00 | 0.74 | 0.00 | 55 | 1002.0 |
| 20260904225013 | 23 | 270 | 0.0 | 0.0 | 0.00 | 0.74 | 0.00 | 64 | 1002.0 |
| 20260904223759 | 22 | 270 | 0.0 | 0.0 | 0.00 | 0.84 | 0.00 | 68 | 1002.0 |
| 20260904223514 | 22 | 270 | 0.0 | 0.0 | 0.00 | 0.84 | 0.00 | 69 | 1002.0 |
| 20260904222014 | 22 | 270 | 0.0 | 0.0 | 0.00 | 0.84 | 0.00 | 76 | 1002.0 |
| 20260904220758 | 22 | 270 | 0.0 | 0.0 | 0.00 | 0.97 | 0.00 | 79 | 1002.0 |
| 20260904220513 | 22 | 270 | 0.0 | 0.0 | 0.00 | 0.97 | 0.00 | 80 | 1002.0 |
| 20260904215013 | 21 | 270 | 0.0 | 0.0 | 0.00 | 1.07 | 0.00 | 81 | 1002.0 |
| 20260904213757 | 21 | 270 | 0.0 | 0.0 | 0.00 | 1.17 | 0.00 | 82 | 1002.0 |
| 20260904213512 | 21 | 270 | 0.0 | 0.0 | 0.00 | 1.17 | 0.00 | 82 | 1002.0 |
| 20260904212012 | 21 | 270 | 0.0 | 0.0 | 0.00 | 1.27 | 0.00 | 82 | 1002.0 |
| 20260904210758 | 21 | 270 | 0.0 | 0.0 | 0.00 | 1.27 | 0.00 | 80 | 1002.0 |
| 20260904210513 | 21 | 270 | 0.0 | 0.0 | 0.00 | 1.27 | 0.00 | 80 | 1002.0 |
| 20260904203758 | 21 | 270 | 0.0 | 0.0 | 0.00 | 1.37 | 0.00 | 77 | 1002.0 |
| 20260904203513 | 21 | 270 | 0.0 | 0.0 | 0.00 | 1.37 | 0.00 | 77 | 1002.0 |
| 20260904202014 | 21 | 270 | 0.0 | 0.0 | 0.00 | 1.37 | 0.00 | 78 | 1002.0 |
| 20260904200759 | 21 | 270 | 0.0 | 0.0 | 0.00 | 1.37 | 0.00 | 77 | 1001.0 |
| 20260904200514 | 21 | 270 | 0.0 | 0.0 | 0.00 | 1.37 | 0.00 | 76 | 1001.0 |
| 20260904195013 | 21 | 270 | 0.0 | 0.0 | 0.00 | 1.37 | 0.00 | 75 | 1001.0 |
| 20260904193758 | 21 | 270 | 0.0 | 0.0 | 0.00 | 1.37 | 0.00 | 72 | 1001.0 |
| 20260904193512 | 21 | 270 | 0.0 | 0.0 | 0.00 | 1.37 | 0.00 | 71 | 1001.0 |
| 20260904192013 | 21 | 270 | 0.0 | 0.0 | 0.00 | 1.45 | 0.00 | 72 | 1001.0 |
| 20260904190757 | 21 | 270 | 0.0 | 0.0 | 0.00 | 1.45 | 0.00 | 72 | 1001.0 |
| 20260904183758 | 21 | 270 | 0.0 | 0.0 | 0.00 | 1.45 | 0.00 | 73 | 1001.0 |
| 20260904183513 | 21 | 270 | 0.0 | 0.0 | 0.00 | 1.45 | 0.00 | 73 | 1001.0 |
| 20260904182013 | 21 | 270 | 0.0 | 0.0 | 0.00 | 1.45 | 0.00 | 72 | 1001.0 |
| 20260904180758 | 21 | 270 | 0.0 | 3.2 | 0.00 | 1.55 | 0.00 | 73 | 1001.0 |
| 20260904173758 | 22 | 270 | 0.0 | 0.0 | 0.00 | 1.55 | 0.00 | 75 | 1001.0 |
| 20260904173513 | 22 | 270 | 0.0 | 0.0 | 0.00 | 1.55 | 0.00 | 76 | 1001.0 |
| 20260904170757 | 22 | 270 | 0.0 | 0.0 | 0.00 | 1.55 | 0.00 | 81 | 1002.0 |
| 20260904165013 | 22 | 270 | 0.0 | 0.0 | 0.00 | 1.55 | 0.00 | 84 | 1002.0 |
| 20260904163758 | 22 | 270 | 0.0 | 0.0 | 0.00 | 1.55 | 0.00 | 86 | 1001.0 |
| 20260904163513 | 22 | 270 | 0.0 | 0.0 | 0.00 | 1.55 | 0.00 | 86 | 1001.0 |
| 20260904160758 | 22 | 315 | 0.0 | 0.0 | 0.00 | 1.55 | 0.00 | 90 | 1001.0 |
| 20260904155012 | 22 | 315 | 0.0 | 0.0 | 0.00 | 1.55 | 0.00 | 91 | 1001.0 |
| 20260904153757 | 22 | 315 | 0.0 | 0.0 | 0.00 | 1.55 | 0.00 | 91 | 1001.0 |
| 20260904150758 | 22 | 225 | 0.0 | 0.0 | 0.00 | 1.55 | 0.00 | 90 | 1001.0 |